,,PA_Meas_PMT16A,,PR_Meas_QMR101_102,,RH_Meas_QMH101,,SR_Meas_QMS101,,TA_Meas_QMH101,,GenWind,,GenWind,
time,status,PA,status,PR,status,RH,status,SR,status,TA,status,DirAvg,status,SpdAvg,
2014-10-10, 00:00:04,VALID,918.524,VALID,0,VALID,97.0156,VALID,0,VALID,20.1123,VALID,141,VALID,0,
2014-10-10, 00:01:04,VALID,918.499,VALID,0,VALID,96.9546,VALID,0.107441,VALID,20.1708,VALID,150,VALID,0,
2014-10-10, 00:02:04,VALID,918.484,VALID,0,VALID,96.9317,VALID,0,VALID,20.2114,VALID,149,VALID,0,
2014-10-10, 00:03:04,VALID,918.468,VALID,0,VALID,96.886,VALID,0,VALID,20.2098,VALID,151,VALID,0,
2014-10-10, 00:04:04,VALID,918.464,VALID,0,VALID,96.8631,VALID,0,VALID,20.2098,VALID,152,VALID,0,
2014-10-10, 00:05:04,VALID,918.431,VALID,0,VALID,96.8174,VALID,0,VALID,20.1903,VALID,136,VALID,0,
2014-10-10, 00:06:04,VALID,918.423,VALID,0,VALID,96.7488,VALID,0,VALID,20.1708,VALID,132,VALID,0,
2014-10-10, 00:07:04,VALID,918.444,VALID,0,VALID,96.7183,VALID,0,VALID,20.1513,VALID,153,VALID,0,
2014-10-10, 00:08:04,VALID,918.413,VALID,0,VALID,96.703,VALID,0,VALID,20.1529,VALID,141,VALID,0,
2014-10-10, 00:09:04,VALID,918.377,VALID,0,VALID,96.6954,VALID,0,VALID,20.1139,VALID,143,VALID,0,
2014-10-10, 00:10:04,VALID,918.385,VALID,0,VALID,96.6878,VALID,0,VALID,20.0733,VALID,139,VALID,0,
2014-10-10, 00:11:04,VALID,918.361,VALID,0,VALID,96.7107,VALID,0,VALID,20.0733,VALID,136,VALID,0.003125,
2014-10-10, 00:12:04,VALID,918.342,VALID,0,VALID,96.7488,VALID,0,VALID,20.0733,VALID,144,VALID,0.152344,
2014-10-10, 00:13:04,VALID,918.337,VALID,0,VALID,96.764,VALID,0,VALID,20.0733,VALID,150,VALID,0,
2014-10-10, 00:14:04,VALID,918.283,VALID,0,VALID,96.764,VALID,0,VALID,20.0733,VALID,153,VALID,0,
2014-10-10, 00:15:04,VALID,918.278,VALID,0,VALID,96.7793,VALID,0,VALID,20.0733,VALID,156,VALID,0,
2014-10-10, 00:16:04,VALID,918.246,VALID,0,VALID,96.8098,VALID,0,VALID,20.0733,VALID,158,VALID,0.0195313,
2014-10-10, 00:17:04,VALID,918.247,VALID,0,VALID,96.8098,VALID,0,VALID,20.0733,VALID,178,VALID,0.009375,
2014-10-10, 00:18:04,VALID,918.202,VALID,0,VALID,96.8555,VALID,0,VALID,20.0733,VALID,163,VALID,0.0195313,
2014-10-10, 00:19:04,VALID,918.17,VALID,0,VALID,96.8631,VALID,0,VALID,20.0733,VALID,158,VALID,0,
2014-10-10, 00:20:04,VALID,918.159,VALID,0,VALID,96.886,VALID,0,VALID,20.0733,VALID,140,VALID,0,
2014-10-10, 00:21:04,VALID,918.132,VALID,0,VALID,96.8936,VALID,0,VALID,20.0343,VALID,159,VALID,0,
2014-10-10, 00:22:04,VALID,918.089,VALID,0,VALID,96.9317,VALID,0,VALID,20.0553,VALID,159,VALID,0,
2014-10-10, 00:23:04,VALID,918.1,VALID,0,VALID,96.947,VALID,0,VALID,20.0538,VALID,137,VALID,0,
2014-10-10, 00:24:04,VALID,918.06,VALID,0,VALID,96.9546,VALID,0,VALID,20.0343,VALID,139,VALID,0,
2014-10-10, 00:25:04,VALID,918.094,VALID,0,VALID,96.9622,VALID,0,VALID,20.0148,VALID,141,VALID,0,
2014-10-10, 00:26:04,VALID,918.118,VALID,0,VALID,96.9851,VALID,0,VALID,20.0148,VALID,137,VALID,0,
2014-10-10, 00:27:04,VALID,918.091,VALID,0,VALID,96.9927,VALID,0,VALID,20.0148,VALID,137,VALID,0,
2014-10-10, 00:28:05,VALID,918.081,VALID,0,VALID,97.0156,VALID,0,VALID,20.0148,VALID,137,VALID,0,
2014-10-10, 00:29:05,VALID,918.112,VALID,0,VALID,97.0385,VALID,0,VALID,20.0148,VALID,137,VALID,0,
2014-10-10, 00:30:05,VALID,918.092,VALID,0,VALID,97.0613,VALID,0,VALID,20.0358,VALID,137,VALID,0,
2014-10-10, 00:31:05,VALID,918.082,VALID,0,VALID,97.0537,VALID,0,VALID,19.9953,VALID,137,VALID,0,
2014-10-10, 00:32:05,VALID,918.088,VALID,0,VALID,97.0766,VALID,0,VALID,20.0163,VALID,137,VALID,0,
2014-10-10, 00:33:05,VALID,918.089,VALID,0,VALID,97.0994,VALID,0,VALID,20.0148,VALID,137,VALID,0,
2014-10-10, 00:34:05,VALID,918.079,VALID,0,VALID,97.0842,VALID,0,VALID,20.0148,VALID,137,VALID,0,
2014-10-10, 00:35:05,VALID,918.065,VALID,0,VALID,97.0994,VALID,0,VALID,20.0538,VALID,137,VALID,0,
2014-10-10, 00:36:05,VALID,918.08,VALID,0,VALID,97.0994,VALID,0,VALID,20.0538,VALID,158,VALID,0,
2014-10-10, 00:37:05,VALID,918.072,VALID,0,VALID,97.1223,VALID,0,VALID,20.0944,VALID,158,VALID,0,
2014-10-10, 00:38:05,VALID,918.109,VALID,0,VALID,97.1299,VALID,0,VALID,20.1334,VALID,158,VALID,0,
2014-10-10, 00:39:05,VALID,918.057,VALID,0,VALID,97.0994,VALID,0,VALID,20.1123,VALID,157,VALID,0,
2014-10-10, 00:40:05,VALID,918.106,VALID,0,VALID,97.1376,VALID,0,VALID,20.1318,VALID,157,VALID,0,
2014-10-10, 00:41:05,VALID,918.11,VALID,0,VALID,97.1071,VALID,0,VALID,20.1513,VALID,157,VALID,0,
2014-10-10, 00:42:05,VALID,918.105,VALID,0,VALID,97.1147,VALID,0,VALID,20.1513,VALID,157,VALID,0,
2014-10-10, 00:43:05,VALID,918.109,VALID,0,VALID,97.0994,VALID,0,VALID,20.1724,VALID,157,VALID,0,
2014-10-10, 00:44:05,VALID,918.11,VALID,0,VALID,97.1071,VALID,0,VALID,20.1919,VALID,157,VALID,0,
2014-10-10, 00:45:05,VALID,918.097,VALID,0,VALID,97.0994,VALID,0,VALID,20.2098,VALID,157,VALID,0,
2014-10-10, 00:46:05,VALID,918.103,VALID,0,VALID,97.0918,VALID,0.107441,VALID,20.2293,VALID,157,VALID,0,
2014-10-10, 00:47:05,VALID,918.075,VALID,0,VALID,97.0918,VALID,0,VALID,20.2309,VALID,157,VALID,0,
2014-10-10, 00:48:05,VALID,918.068,VALID,0,VALID,97.0918,VALID,0,VALID,20.1903,VALID,157,VALID,0,
2014-10-10, 00:49:05,VALID,918.043,VALID,0,VALID,97.0537,VALID,0,VALID,20.1334,VALID,157,VALID,0,
2014-10-10, 00:50:05,VALID,918.052,VALID,0,VALID,97.0385,VALID,0,VALID,20.0928,VALID,136,VALID,0,
2014-10-10, 00:51:05,VALID,918.026,VALID,0,VALID,97.0461,VALID,0,VALID,20.0538,VALID,137,VALID,0,
2014-10-10, 00:52:05,VALID,918.022,VALID,0,VALID,97.0308,VALID,0,VALID,20.0148,VALID,136,VALID,0,
2014-10-10, 00:53:05,VALID,917.995,VALID,0,VALID,97.0232,VALID,0,VALID,20.0148,VALID,137,VALID,0,
2014-10-10, 00:54:05,VALID,917.979,VALID,0,VALID,97.0232,VALID,0,VALID,20.0148,INVALID,360,VALID,0,
2014-10-10, 00:55:05,VALID,917.933,VALID,0,VALID,97.0308,VALID,0,VALID,20.0148,VALID,136,VALID,0,
2014-10-10, 00:56:05,VALID,917.926,VALID,0,VALID,97.0461,VALID,0,VALID,20.0148,VALID,137,VALID,0,
2014-10-10, 00:57:05,VALID,917.902,VALID,0,VALID,97.0537,VALID,0,VALID,20.0343,VALID,136,VALID,0,
2014-10-10, 00:58:05,VALID,917.893,VALID,0,VALID,97.0613,VALID,0,VALID,20.0343,VALID,136,VALID,0,
2014-10-10, 00:59:05,VALID,917.89,VALID,0,VALID,97.0613,VALID,0,VALID,20.0343,VALID,136,VALID,0,
2014-10-10, 01:00:05,VALID,917.84,VALID,0,VALID,97.0766,VALID,0,VALID,20.0343,VALID,137,VALID,0,
2014-10-10, 01:01:05,VALID,917.839,VALID,0,VALID,97.069,VALID,0,VALID,20.0538,VALID,137,VALID,0,
2014-10-10, 01:02:05,VALID,917.836,VALID,0,VALID,97.0994,VALID,0,VALID,20.0538,VALID,137,VALID,0,
2014-10-10, 01:03:05,VALID,917.817,VALID,0,VALID,97.0994,VALID,0,VALID,20.0538,VALID,137,VALID,0,
2014-10-10, 01:04:05,VALID,917.793,VALID,0,VALID,97.0918,VALID,0,VALID,20.0733,VALID,137,VALID,0,
2014-10-10, 01:05:05,VALID,917.793,VALID,0,VALID,97.0766,VALID,0,VALID,20.0733,VALID,137,VALID,0,
2014-10-10, 01:06:05,VALID,917.82,VALID,0,VALID,97.069,VALID,0,VALID,20.0928,VALID,136,VALID,0,
2014-10-10, 01:07:05,VALID,917.798,VALID,0,VALID,97.0842,VALID,0,VALID,20.0928,VALID,137,VALID,0,
2014-10-10, 01:08:05,VALID,917.779,VALID,0,VALID,97.0613,VALID,0,VALID,20.0928,VALID,136,VALID,0,
2014-10-10, 01:09:05,VALID,917.779,VALID,0,VALID,97.0842,VALID,0,VALID,20.1123,VALID,137,VALID,0,
2014-10-10, 01:10:05,VALID,917.777,VALID,0,VALID,97.069,VALID,0,VALID,20.0928,VALID,137,VALID,0,
2014-10-10, 01:11:05,VALID,917.75,VALID,0,VALID,97.069,VALID,0,VALID,20.1334,VALID,144,VALID,0,
2014-10-10, 01:12:05,VALID,917.739,VALID,0,VALID,97.0461,VALID,0,VALID,20.1123,VALID,141,VALID,0,
2014-10-10, 01:13:05,VALID,917.765,VALID,0,VALID,97.0385,VALID,0,VALID,20.1123,VALID,140,VALID,0,
2014-10-10, 01:14:05,VALID,917.725,VALID,0,VALID,97.0308,VALID,0,VALID,20.1334,VALID,141,VALID,0,
2014-10-10, 01:15:05,VALID,917.721,VALID,0,VALID,97.0232,VALID,0,VALID,20.0928,VALID,141,VALID,0,
2014-10-10, 01:16:05,VALID,917.743,VALID,0,VALID,97.0308,VALID,0,VALID,20.0928,VALID,150,VALID,0,
2014-10-10, 01:17:05,VALID,917.711,VALID,0,VALID,97.0232,VALID,0,VALID,20.0928,VALID,145,VALID,0,
2014-10-10, 01:18:05,VALID,917.723,VALID,0,VALID,97.0308,VALID,0,VALID,20.0733,VALID,148,VALID,0,
2014-10-10, 01:19:05,VALID,917.714,VALID,0,VALID,97.0385,VALID,0,VALID,20.0733,VALID,153,VALID,0,
2014-10-10, 01:20:05,VALID,917.732,VALID,0,VALID,97.0537,VALID,0,VALID,20.0538,VALID,142,VALID,0,
2014-10-10, 01:21:05,VALID,917.753,VALID,0,VALID,97.0461,VALID,0,VALID,20.0538,VALID,154,VALID,0,
2014-10-10, 01:22:05,VALID,917.755,VALID,0,VALID,97.0766,VALID,0,VALID,20.0538,VALID,160,VALID,0,
2014-10-10, 01:23:05,VALID,917.748,VALID,0,VALID,97.0766,VALID,0,VALID,20.0538,VALID,161,VALID,0,
2014-10-10, 01:24:05,VALID,917.753,VALID,0,VALID,97.0766,VALID,0,VALID,20.0538,VALID,165,VALID,0,
2014-10-10, 01:25:05,VALID,917.741,VALID,0,VALID,97.0842,VALID,0,VALID,20.0538,VALID,165,VALID,0,
2014-10-10, 01:26:05,VALID,917.759,VALID,0,VALID,97.0994,VALID,0.107441,VALID,20.0733,VALID,165,VALID,0,
2014-10-10, 01:27:05,VALID,917.72,VALID,0,VALID,97.1223,VALID,0,VALID,20.0733,VALID,165,VALID,0,
2014-10-10, 01:28:05,VALID,917.705,VALID,0,VALID,97.1223,VALID,0,VALID,20.0733,VALID,165,VALID,0,
2014-10-10, 01:29:05,VALID,917.705,VALID,0,VALID,97.1223,VALID,0,VALID,20.0928,VALID,165,VALID,0,
2014-10-10, 01:30:05,VALID,917.659,VALID,0,VALID,97.1299,VALID,0,VALID,20.0928,VALID,165,VALID,0,
2014-10-10, 01:31:05,VALID,917.648,VALID,0,VALID,97.1376,VALID,0,VALID,20.0913,VALID,165,VALID,0,
2014-10-10, 01:32:05,VALID,917.635,VALID,0,VALID,97.1528,VALID,0,VALID,20.0928,VALID,165,VALID,0,
2014-10-10, 01:33:05,VALID,917.625,VALID,0,VALID,97.1681,VALID,0,VALID,20.0733,VALID,165,VALID,0,
2014-10-10, 01:34:05,VALID,917.59,VALID,0,VALID,97.1681,VALID,0,VALID,20.0928,VALID,164,VALID,0,
2014-10-10, 01:35:05,VALID,917.558,VALID,0,VALID,97.1604,VALID,0,VALID,20.0928,VALID,165,VALID,0,
2014-10-10, 01:36:05,VALID,917.545,VALID,0,VALID,97.1528,VALID,0.107441,VALID,20.1123,VALID,165,VALID,0,
2014-10-10, 01:37:05,VALID,917.537,VALID,0,VALID,97.1604,VALID,0,VALID,20.1123,VALID,165,VALID,0,
2014-10-10, 01:38:05,VALID,917.506,VALID,0,VALID,97.1757,VALID,0,VALID,20.0928,VALID,157,VALID,0,
2014-10-10, 01:39:05,VALID,917.521,VALID,0,VALID,97.1909,VALID,0,VALID,20.0928,VALID,147,VALID,0,
2014-10-10, 01:40:05,VALID,917.507,VALID,0,VALID,97.1833,VALID,0,VALID,20.0928,VALID,152,VALID,0,
2014-10-10, 01:41:05,VALID,917.488,VALID,0,VALID,97.1757,VALID,0,VALID,20.1334,VALID,157,VALID,0,
2014-10-10, 01:42:05,VALID,917.492,VALID,0,VALID,97.1986,VALID,0,VALID,20.1318,VALID,134,VALID,0,
2014-10-10, 01:43:05,VALID,917.491,VALID,0,VALID,97.1986,VALID,0,VALID,20.1318,VALID,134,VALID,0,
2014-10-10, 01:44:05,VALID,917.461,VALID,0,VALID,97.1909,VALID,0,VALID,20.1123,VALID,133,VALID,0,
2014-10-10, 01:45:05,VALID,917.467,VALID,0,VALID,97.1909,VALID,0,VALID,20.1318,VALID,134,VALID,0,
2014-10-10, 01:46:05,VALID,917.475,VALID,0,VALID,97.1833,VALID,0,VALID,20.1513,VALID,134,VALID,0,
2014-10-10, 01:47:05,VALID,917.47,VALID,0,VALID,97.1681,VALID,0,VALID,20.1513,VALID,132,VALID,0,
2014-10-10, 01:48:05,VALID,917.478,VALID,0,VALID,97.1833,VALID,0,VALID,20.1513,VALID,132,VALID,0,
2014-10-10, 01:49:05,VALID,917.458,VALID,0,VALID,97.1833,VALID,0,VALID,20.1708,VALID,132,VALID,0,
2014-10-10, 01:50:05,VALID,917.476,VALID,0,VALID,97.1833,VALID,0,VALID,20.1708,VALID,132,VALID,0,
2014-10-10, 01:51:05,VALID,917.474,VALID,0,VALID,97.1604,VALID,0,VALID,20.1903,VALID,132,VALID,0,
2014-10-10, 01:52:05,VALID,917.453,VALID,0,VALID,97.1604,VALID,0,VALID,20.1693,VALID,134,VALID,0,
2014-10-10, 01:53:05,VALID,917.413,VALID,0,VALID,97.1299,VALID,0,VALID,20.2293,VALID,139,VALID,0,
2014-10-10, 01:54:05,VALID,917.423,VALID,0,VALID,97.1299,VALID,0,VALID,20.2489,VALID,139,VALID,0,
2014-10-10, 01:55:05,VALID,917.405,VALID,0,VALID,97.1299,VALID,0,VALID,20.2894,VALID,139,VALID,0,
2014-10-10, 01:56:05,VALID,917.369,VALID,0,VALID,97.0918,VALID,0,VALID,20.2684,VALID,145,VALID,0,
2014-10-10, 01:57:05,VALID,917.341,VALID,0,VALID,97.0842,VALID,0,VALID,20.2879,VALID,144,VALID,0,
2014-10-10, 01:58:05,VALID,917.321,VALID,0,VALID,97.0537,VALID,0,VALID,20.2684,VALID,132,VALID,0,
2014-10-10, 01:59:05,VALID,917.295,VALID,0,VALID,97.0461,VALID,0,VALID,20.2489,VALID,133,VALID,0,
2014-10-10, 02:00:05,VALID,917.278,VALID,0,VALID,97.0232,VALID,0.107441,VALID,20.2489,VALID,133,VALID,0,
2014-10-10, 02:01:05,VALID,917.274,VALID,0,VALID,96.9927,VALID,0,VALID,20.2489,VALID,138,VALID,0,
2014-10-10, 02:02:05,VALID,917.265,VALID,0,VALID,96.9927,VALID,0,VALID,20.2684,VALID,132,VALID,0,
2014-10-10, 02:03:05,VALID,917.296,VALID,0,VALID,96.9698,VALID,0,VALID,20.2489,VALID,132,VALID,0,
2014-10-10, 02:04:05,VALID,917.271,VALID,0,VALID,96.947,VALID,0,VALID,20.2684,VALID,132,VALID,0,
2014-10-10, 02:05:05,VALID,917.263,VALID,0,VALID,96.9165,VALID,0.107441,VALID,20.2473,VALID,132,VALID,0,
2014-10-10, 02:06:05,VALID,917.273,VALID,0,VALID,96.9012,VALID,0,VALID,20.2489,VALID,132,VALID,0,
2014-10-10, 02:07:05,VALID,917.263,VALID,0,VALID,96.8631,VALID,0,VALID,20.2489,VALID,132,VALID,0,
2014-10-10, 02:08:05,VALID,917.221,VALID,0,VALID,96.8326,VALID,0,VALID,20.2098,VALID,132,VALID,0,
2014-10-10, 02:09:05,VALID,917.217,VALID,0,VALID,96.8326,VALID,0.107441,VALID,20.2098,VALID,132,VALID,0,
2014-10-10, 02:10:05,VALID,917.185,VALID,0,VALID,96.8098,VALID,0,VALID,20.1708,VALID,132,VALID,0,
2014-10-10, 02:11:05,VALID,917.189,VALID,0,VALID,96.8174,VALID,0,VALID,20.1513,VALID,132,VALID,0,
2014-10-10, 02:12:05,VALID,917.155,VALID,0,VALID,96.825,VALID,0,VALID,20.1318,VALID,132,VALID,0,
2014-10-10, 02:13:05,VALID,917.15,VALID,0,VALID,96.825,VALID,0,VALID,20.0928,VALID,136,VALID,0,
2014-10-10, 02:14:05,VALID,917.138,VALID,0,VALID,96.8326,VALID,0,VALID,20.0913,VALID,136,VALID,0,
2014-10-10, 02:15:05,VALID,917.107,VALID,0,VALID,96.8555,VALID,0,VALID,20.0928,VALID,136,VALID,0,
2014-10-10, 02:16:05,VALID,917.09,VALID,0,VALID,96.8784,VALID,0,VALID,20.0928,VALID,137,VALID,0,
2014-10-10, 02:17:05,VALID,917.133,VALID,0,VALID,96.9012,VALID,0,VALID,20.0733,VALID,137,VALID,0,
2014-10-10, 02:18:05,VALID,917.113,VALID,0,VALID,96.9012,VALID,0,VALID,20.0343,VALID,137,VALID,0,
2014-10-10, 02:19:05,VALID,917.096,VALID,0,VALID,96.9165,VALID,0,VALID,20.0538,VALID,137,VALID,0,
2014-10-10, 02:20:05,VALID,917.103,VALID,0,VALID,96.947,VALID,0,VALID,20.0343,VALID,139,VALID,0,
2014-10-10, 02:21:05,VALID,917.093,VALID,0,VALID,96.9394,VALID,0,VALID,20.0148,VALID,145,VALID,0,
2014-10-10, 02:22:05,VALID,917.073,VALID,0,VALID,96.9775,VALID,0,VALID,20.0148,VALID,145,VALID,0,
2014-10-10, 02:23:05,VALID,917.071,VALID,0,VALID,96.9927,VALID,0,VALID,19.9938,VALID,163,VALID,0,
2014-10-10, 02:24:05,VALID,917.057,VALID,0,VALID,97.008,VALID,0,VALID,19.9953,VALID,163,VALID,0,
2014-10-10, 02:25:05,VALID,917.042,VALID,0,VALID,97.0308,VALID,0,VALID,19.9758,VALID,163,VALID,0,
2014-10-10, 02:26:05,VALID,917.008,VALID,0,VALID,97.0385,VALID,0,VALID,19.9758,VALID,163,VALID,0,
2014-10-10, 02:27:05,VALID,917.008,VALID,0,VALID,97.0613,VALID,0,VALID,20.0163,VALID,163,VALID,0,
2014-10-10, 02:28:05,VALID,917.001,VALID,0,VALID,97.069,VALID,0,VALID,19.9953,VALID,163,VALID,0,
2014-10-10, 02:29:05,VALID,917.026,VALID,0,VALID,97.1147,VALID,0,VALID,19.9968,VALID,163,VALID,0,
2014-10-10, 02:30:05,VALID,917.024,VALID,0,VALID,97.0994,VALID,0,VALID,19.9953,VALID,163,VALID,0,
2014-10-10, 02:31:05,VALID,917.034,VALID,0,VALID,97.1071,VALID,0,VALID,19.9758,VALID,163,VALID,0,
2014-10-10, 02:32:05,VALID,917.005,VALID,0,VALID,97.1071,VALID,0,VALID,19.9758,VALID,160,VALID,0,
2014-10-10, 02:33:05,VALID,917.031,VALID,0,VALID,97.1299,VALID,0.107441,VALID,19.9758,VALID,160,VALID,0,
2014-10-10, 02:34:05,VALID,917.042,VALID,0,VALID,97.1376,VALID,0,VALID,19.9758,VALID,160,VALID,0,
2014-10-10, 02:35:05,VALID,917.042,VALID,0,VALID,97.1528,VALID,0,VALID,19.9953,VALID,160,VALID,0,
2014-10-10, 02:36:05,VALID,917.041,VALID,0,VALID,97.1681,VALID,0,VALID,20.0148,VALID,160,VALID,0,
2014-10-10, 02:37:05,VALID,916.998,VALID,0,VALID,97.1833,VALID,0,VALID,19.9953,VALID,154,VALID,0,
2014-10-10, 02:38:05,VALID,916.994,VALID,0,VALID,97.1909,VALID,0,VALID,19.9953,VALID,154,VALID,0,
2014-10-10, 02:39:05,VALID,916.968,VALID,0,VALID,97.1833,VALID,0,VALID,20.0358,VALID,154,VALID,0,
2014-10-10, 02:40:05,VALID,916.967,VALID,0,VALID,97.1909,VALID,0,VALID,20.0343,VALID,154,VALID,0,
2014-10-10, 02:41:05,VALID,916.977,VALID,0,VALID,97.2138,VALID,0,VALID,20.0148,VALID,154,VALID,0,
2014-10-10, 02:42:05,VALID,916.937,VALID,0,VALID,97.2214,VALID,0,VALID,20.0358,VALID,154,VALID,0,
2014-10-10, 02:43:05,VALID,916.92,VALID,0,VALID,97.2138,VALID,0,VALID,20.0148,VALID,154,VALID,0,
2014-10-10, 02:44:05,VALID,916.918,VALID,0,VALID,97.229,VALID,0,VALID,20.0358,VALID,154,VALID,0,
2014-10-10, 02:45:05,VALID,916.909,VALID,0,VALID,97.2138,VALID,0,VALID,20.0553,VALID,154,VALID,0,
2014-10-10, 02:46:05,VALID,916.897,VALID,0,VALID,97.1986,VALID,0,VALID,20.0538,VALID,154,VALID,0,
2014-10-10, 02:47:05,VALID,916.893,VALID,0,VALID,97.229,VALID,0,VALID,20.0538,VALID,154,VALID,0,
2014-10-10, 02:48:05,VALID,916.869,VALID,0,VALID,97.2138,VALID,0,VALID,20.0553,VALID,154,VALID,0,
2014-10-10, 02:49:05,VALID,916.853,VALID,0,VALID,97.2367,VALID,0,VALID,20.0148,VALID,154,VALID,0,
2014-10-10, 02:50:05,VALID,916.86,VALID,0,VALID,97.2519,VALID,0,VALID,19.9953,VALID,154,VALID,0,
2014-10-10, 02:51:05,VALID,916.814,VALID,0,VALID,97.2367,VALID,0,VALID,20.0148,VALID,154,VALID,0,
2014-10-10, 02:52:05,VALID,916.818,VALID,0,VALID,97.2443,VALID,0,VALID,20.0148,VALID,154,VALID,0,
2014-10-10, 02:53:05,VALID,916.805,VALID,0,VALID,97.2367,VALID,0,VALID,20.0148,VALID,154,VALID,0,
2014-10-10, 02:54:05,VALID,916.797,VALID,0,VALID,97.229,VALID,0,VALID,20.0553,VALID,154,VALID,0,
2014-10-10, 02:55:05,VALID,916.752,VALID,0,VALID,97.2367,VALID,0,VALID,20.0553,VALID,154,VALID,0,
2014-10-10, 02:56:05,VALID,916.791,VALID,0,VALID,97.2443,VALID,0,VALID,20.0148,VALID,154,VALID,0,
2014-10-10, 02:57:05,VALID,916.784,VALID,0,VALID,97.2367,VALID,0,VALID,20.0163,VALID,154,VALID,0,
2014-10-10, 02:58:05,VALID,916.797,VALID,0,VALID,97.2519,VALID,0,VALID,20.0163,VALID,154,VALID,0,
2014-10-10, 02:59:05,VALID,916.771,VALID,0,VALID,97.2595,VALID,0,VALID,19.9953,VALID,154,VALID,0,
2014-10-10, 03:00:05,VALID,916.769,VALID,0,VALID,97.2748,VALID,0,VALID,19.9953,VALID,154,VALID,0,
2014-10-10, 03:01:05,VALID,916.769,VALID,0,VALID,97.2748,VALID,0,VALID,19.9953,VALID,168,VALID,0,
2014-10-10, 03:02:05,VALID,916.76,VALID,0,VALID,97.2748,VALID,0,VALID,19.9953,VALID,168,VALID,0,
2014-10-10, 03:03:05,VALID,916.805,VALID,0,VALID,97.2595,VALID,0,VALID,20.0358,VALID,168,VALID,0,
2014-10-10, 03:04:05,VALID,916.791,VALID,0,VALID,97.2595,VALID,0,VALID,20.0358,VALID,168,VALID,0,
2014-10-10, 03:05:05,VALID,916.777,VALID,0,VALID,97.2519,VALID,0,VALID,20.0358,VALID,168,VALID,0,
2014-10-10, 03:06:05,VALID,916.809,VALID,0,VALID,97.2748,VALID,0,VALID,20.0148,VALID,168,VALID,0,
2014-10-10, 03:07:05,VALID,916.839,VALID,0,VALID,97.2672,VALID,0,VALID,20.0343,VALID,168,VALID,0,
2014-10-10, 03:08:05,VALID,916.812,VALID,0,VALID,97.29,VALID,0,VALID,20.0148,VALID,167,VALID,0,
2014-10-10, 03:09:05,VALID,916.843,VALID,0,VALID,97.2519,VALID,0,VALID,19.9953,VALID,166,VALID,0,
2014-10-10, 03:10:04,VALID,916.85,VALID,0,VALID,97.2672,VALID,0,VALID,19.9758,VALID,117,VALID,0,
2014-10-10, 03:11:04,VALID,916.854,VALID,0,VALID,97.2672,VALID,0,VALID,19.9758,VALID,117,VALID,0,
2014-10-10, 03:12:04,VALID,916.862,VALID,0,VALID,97.2748,VALID,0,VALID,19.9563,VALID,117,VALID,0,
2014-10-10, 03:13:04,VALID,916.839,VALID,0,VALID,97.2595,VALID,0,VALID,19.9563,VALID,117,VALID,0,
2014-10-10, 03:14:04,VALID,916.853,VALID,0,VALID,97.29,VALID,0.107441,VALID,19.9563,VALID,117,VALID,0,
2014-10-10, 03:15:04,VALID,916.819,VALID,0,VALID,97.2824,VALID,0,VALID,19.9578,VALID,117,VALID,0,
2014-10-10, 03:16:04,VALID,916.839,VALID,0,VALID,97.2519,VALID,0,VALID,19.9383,VALID,117,VALID,0,
2014-10-10, 03:17:04,VALID,916.807,VALID,0,VALID,97.29,VALID,0,VALID,19.9173,VALID,117,VALID,0,
2014-10-10, 03:18:04,VALID,916.822,VALID,0,VALID,97.29,VALID,0,VALID,19.9173,VALID,117,VALID,0,
2014-10-10, 03:19:04,VALID,916.823,VALID,0,VALID,97.2824,VALID,0,VALID,19.9578,VALID,117,VALID,0,
2014-10-10, 03:20:04,VALID,916.809,VALID,0,VALID,97.2748,VALID,0,VALID,19.9563,VALID,117,VALID,0,
2014-10-10, 03:21:04,VALID,916.811,VALID,0,VALID,97.29,VALID,0.107441,VALID,19.9773,VALID,117,VALID,0,
2014-10-10, 03:22:04,VALID,916.808,VALID,0,VALID,97.2977,VALID,0.107441,VALID,19.9563,VALID,117,VALID,0,
2014-10-10, 03:23:04,VALID,916.862,VALID,0,VALID,97.2977,VALID,0.107441,VALID,19.9563,VALID,118,VALID,0,
2014-10-10, 03:24:04,VALID,916.847,VALID,0,VALID,97.2977,VALID,0,VALID,19.9563,VALID,118,VALID,0,
2014-10-10, 03:25:04,VALID,916.88,VALID,0,VALID,97.2977,VALID,0,VALID,19.9563,VALID,118,VALID,0,
2014-10-10, 03:26:04,VALID,916.871,VALID,0,VALID,97.29,VALID,0,VALID,19.9563,VALID,118,VALID,0,
2014-10-10, 03:27:04,VALID,916.859,VALID,0,VALID,97.3129,VALID,0.107441,VALID,19.9758,VALID,118,VALID,0,
2014-10-10, 03:28:04,VALID,916.84,VALID,0,VALID,97.29,VALID,0,VALID,19.9758,VALID,118,VALID,0,
2014-10-10, 03:29:04,VALID,916.83,VALID,0,VALID,97.3129,VALID,0,VALID,19.9563,VALID,118,VALID,0,
2014-10-10, 03:30:04,VALID,916.85,VALID,0,VALID,97.3129,VALID,0,VALID,19.9758,VALID,118,VALID,0,
2014-10-10, 03:31:04,VALID,916.829,VALID,0,VALID,97.2977,VALID,0,VALID,19.9758,VALID,118,VALID,0,
2014-10-10, 03:32:04,VALID,916.853,VALID,0,VALID,97.3053,VALID,0,VALID,19.9353,VALID,118,VALID,0,
2014-10-10, 03:33:04,VALID,916.851,VALID,0,VALID,97.2977,VALID,0,VALID,19.9368,VALID,118,VALID,0,
2014-10-10, 03:34:04,VALID,916.829,VALID,0,VALID,97.2977,VALID,0,VALID,19.8783,VALID,118,VALID,0,
2014-10-10, 03:35:04,VALID,916.879,VALID,0,VALID,97.2977,VALID,0,VALID,19.8588,VALID,118,VALID,0,
2014-10-10, 03:36:04,VALID,916.858,VALID,0,VALID,97.3053,VALID,0.107441,VALID,19.8588,VALID,118,VALID,0,
2014-10-10, 03:37:04,VALID,916.852,VALID,0,VALID,97.3053,VALID,0,VALID,19.8393,VALID,118,VALID,0,
2014-10-10, 03:38:04,VALID,916.886,VALID,0,VALID,97.3129,VALID,0,VALID,19.8588,VALID,118,VALID,0,
2014-10-10, 03:39:04,VALID,916.908,VALID,0,VALID,97.29,VALID,0.107441,VALID,19.8798,VALID,117,VALID,0,
2014-10-10, 03:40:04,VALID,916.896,VALID,0,VALID,97.2977,VALID,0,VALID,19.8588,VALID,118,VALID,0,
2014-10-10, 03:41:04,VALID,916.877,VALID,0,VALID,97.3205,VALID,0.107441,VALID,19.8783,VALID,118,VALID,0,
2014-10-10, 03:42:04,VALID,916.888,VALID,0,VALID,97.3129,VALID,0,VALID,19.8588,VALID,118,VALID,0,
2014-10-10, 03:43:04,VALID,916.88,VALID,0,VALID,97.3129,VALID,0,VALID,19.8588,VALID,117,VALID,0,
2014-10-10, 03:44:04,VALID,916.863,VALID,0,VALID,97.2977,VALID,0.107441,VALID,19.8588,VALID,118,VALID,0,
2014-10-10, 03:45:04,VALID,916.856,VALID,0,VALID,97.3281,VALID,0,VALID,19.8783,VALID,117,VALID,0,
2014-10-10, 03:46:04,VALID,916.884,VALID,0,VALID,97.3205,VALID,0,VALID,19.9173,VALID,117,VALID,0,
2014-10-10, 03:47:04,VALID,916.887,VALID,0,VALID,97.3053,VALID,0,VALID,19.9173,VALID,118,VALID,0,
2014-10-10, 03:48:04,VALID,916.891,VALID,0,VALID,97.3358,VALID,0,VALID,19.9368,VALID,119,VALID,0,
2014-10-10, 03:49:04,VALID,916.891,VALID,0,VALID,97.3281,VALID,0,VALID,19.9563,VALID,149,VALID,0,
2014-10-10, 03:50:04,VALID,916.89,VALID,0,VALID,97.3205,VALID,0,VALID,19.9563,VALID,149,VALID,0,
2014-10-10, 03:51:04,VALID,916.913,VALID,0,VALID,97.3129,VALID,0,VALID,19.9563,VALID,149,VALID,0,
2014-10-10, 03:52:04,VALID,916.919,VALID,0,VALID,97.3358,VALID,0,VALID,19.9758,VALID,149,VALID,0,
2014-10-10, 03:53:04,VALID,916.936,VALID,0,VALID,97.351,VALID,0.107441,VALID,19.9758,VALID,149,VALID,0,
2014-10-10, 03:54:04,VALID,916.926,VALID,0,VALID,97.3358,VALID,0,VALID,19.9953,VALID,110,VALID,0,
2014-10-10, 03:55:04,VALID,916.946,VALID,0,VALID,97.3434,VALID,0,VALID,19.9953,VALID,110,VALID,0,
2014-10-10, 03:56:04,VALID,916.976,VALID,0,VALID,97.3358,VALID,0,VALID,19.9953,VALID,110,VALID,0,
2014-10-10, 03:57:04,VALID,916.998,VALID,0,VALID,97.351,VALID,0,VALID,19.9953,VALID,110,VALID,0,
2014-10-10, 03:58:04,VALID,916.962,VALID,0,VALID,97.3434,VALID,0,VALID,19.9758,VALID,110,VALID,0,